Regional Weather Roundup
Issued by NWS

Home | Current Version | Previous Version | Text Only | Print | Product List | Glossary Off
Versions: 1 2 3 4 5 6 7 8 9 10 11 12 13 14 15 16 17 18 19 20 21 22 23 24 25 26 27 28 29 30 31 32 33 34 35 36 37 38 39 40 41 42 43 44 45 46 47 48 49 50

834
ASUS45 KSLC 132310
RWRUT

UTAH REGIONAL WEATHER ROUNDUP
NATIONAL WEATHER SERVICE SALT LAKE CITY UT
400 PM MST WED DEC 13 2017

UTZ001>011-023>025-140000-

NORTHERN UTAH

CITY           SKY/WX    TMP DP  RH WIND       PRES   REMARKS
BRIGHAM CITY   CLOUDY    26  24  91 NW3       30.26R
DUGWAY         CLOUDY    26  17  68 W5        30.23R WCI  21
HILL AFB       CLOUDY    28  24  83 S10       30.20F FOG     WCI  19
LOGAN          CLOUDY    26  21  81 N3        30.24R
OGDEN          CLOUDY    30  22  72 S8        30.20F WCI  22
SALT LAKE CITY CLOUDY    28  25  88 E5        30.24F FOG     WCI  23
TOOELE VALLEY  CLOUDY    27  27 100 SW5       30.22F FOG     WCI  21
WENDOVER       CLOUDY    23  17  78 CALM      30.25F
HEBER CITY     CLOUDY    34  18  51 SW3       30.13F
WEST JORDAN    CLOUDY   N/A N/A N/A CALM      30.24F

$$

UTZ011>015-024>027-140000-

CENTRAL/NORTHEAST UTAH

CITY           SKY/WX    TMP DP  RH WIND       PRES   REMARKS
PROVO AIRPORT  CLOUDY    31  25  78 NW5       30.23S FOG     WCI  26
MOAB/CANYONLAN MOCLDY    46   9  22 NW5       30.04F
DELTA          CLOUDY    36  16  44 N5        30.17S WCI  32
PRICE          MOCLDY    46   4  17 E3        30.06F
RICHFIELD      CLEAR     46   1  15 CALM      30.12
ROOSEVELT      CLOUDY    36   9  32 CALM      30.09F
VERNAL         CLOUDY    36  10  34 CALM      30.08S

$$

UTZ013>016-019>022-027-140000-

SOUTHERN UTAH

CITY           SKY/WX    TMP DP  RH WIND       PRES   REMARKS
BRYCE CANYON   SUNNY     53  -3  10 W15       30.14F
CEDAR CITY     SUNNY     50   8  18 CALM      30.12F
MILFORD        PTSUNNY   44  15  31 NE6       30.12F
ST GEORGE      CLOUDY    57   9  14 CALM      30.04F
HANKSVILLE     MOCLDY    46   5  18 CALM      30.08F
KANAB          SUNNY     61   3  10 SE5       30.09
BLANDING         N/A     44   4  19 CALM      30.14F

$$

REGIONAL REPORTS     COLORADO/ARIZONA

CITY           SKY/WX    TMP DP  RH WIND       PRES   REMARKS
CRAIG, CO      CLOUDY    36  25  64 CALM      30.06F
GRAND JUNCTION CLOUDY    43  14  31 NW5       30.05F
RIFLE, CO      CLOUDY    41  14  33 CALM      30.06F
MONTROSE, CO   CLOUDY    46  12  25 MISG      30.06F
CORTEZ, CO     CLEAR     44   5  20 CALM      30.07F
COLORADO CITY    N/A     63   9  12 W9        30.09S
PAGE, AZ       SUNNY     50  16  25 CALM      30.05F
GRAND CANYON   SUNNY     58   9  14 W7        30.12F
KINGMAN, AZ    SUNNY     66  12  12 NE6       30.03F
FLAGSTAFF, AZ  SUNNY     55   5  13 E6        30.13F

$$

REGIONAL REPORTS    NEVADA/IDAHO/WYOMING

CITY           SKY/WX    TMP DP  RH WIND       PRES   REMARKS
LAS VEGAS, NV  MOSUNNY   70   8   9 CALM      30.00F
ELY, NY        SUNNY     54   1  11 N6        30.15F
ELKO, NV       CLOUDY    39  20  46 CALM      30.23R
POCATELLO, ID  CLOUDY    25  22  88 W6        30.27R WCI  18
BURLEY, ID     CLOUDY    26  21  81 NW3       30.28R
FORT BRIDGER,  CLOUDY    39  10  30 NW10      30.14S WCI  32
EVANSTON, WY   LGT SNOW  34  18  52 W14       30.14S WCI  25
ROCK SPRINGS,  CLOUDY    38  -1  19 W5        30.08F WCI  34

$$




USA.gov is the U.S. government's official web portal to all federal, state and local government web resources and services.